Location: C�mpuri de-Sus
(45.9500°N, 22.5500°E)
Time: 10:29:24
(UTC+00:00)

Cosmos 2278 Rocket - Pass Details

Date: 06 June 2022
Orbit: 840 x 846 km, 71.0° (Epoch: 01 July)

Event Time Altitude Azimuth Distance (km) Brightness Sun altitude
Rises 19:14:58 0° 340° (NNW) 3,418 6.7 -8.5°
Reaches altitude 10° 19:17:56 10° 354° (N) 2,478 5.5 -8.9°
Maximum altitude 19:22:28 24° 47° (NE) 1,697 3.8 -9.4°
Drops below altitude 10° 19:26:58 10° 100° (E) 2,465 4.2 -10.0°
Enters shadow 19:27:44 - 105° (ESE) 2,696 4.3 -10.0°
